Regional Weather Roundup
Issued by NWS

Current Version | Previous Version | Graphics & Text | Print | Product List | Glossary On
Versions: 1 2 3 4 5 6 7 8 9 10 11 12 13 14 15 16 17 18 19 20 21 22 23 24 25 26 27 28 29 30 31 32 33 34 35 36 37 38 39 40 41 42 43 44 45 46 47 48 49 50
000
ASHW40 PHFO 231630
RWRHI

WEATHER ROUNDUP FOR HAWAII
NATIONAL WEATHER SERVICE HONOLULU HI
600 AM HST THU OCT 23 2014

THIS IS AN AUTOMATED REPORT THAT HAS NOT BEEN QUALITY CONTROLLED.

NOTE..."FAIR" INDICATES FEW OR NO CLOUDS BELOW 12,000 FEET WITH NO
SIGNIFICANT WEATHER AND/OR OBSTRUCTIONS TO VISIBILITY.

* - THESE SITES REPORT LIMITED FIELDS

HIZ001>004-231700-
KAUAI-NIIHAU-

CITY           SKY/WX    TMP DP  RH WIND       PRES   REMARKS
LIHUE APT      MOCLDY    75  72  88 SW3       30.02R
PORT ALLEN*      N/A     75 N/A N/A NE5         N/A
POIPU*           N/A     75 N/A N/A NW3         N/A
PRINCEVILLE*     N/A     75 N/A N/A MISG        N/A
KOKOLE POINT*    N/A     75 N/A N/A MISG        N/A
MOLOAA DAIRY*  NOT AVBL
WAIMEA HTS*    NOT AVBL
PUU OPAE*      NOT AVBL
PUU LUA*       NOT AVBL
MAKAHA RIDGE*  NOT AVBL
$$

HIZ005>011-231700-
OAHU-

CITY           SKY/WX    TMP DP  RH WIND       PRES   REMARKS
HONOLULU       PTCLDY    75  73  93 N3        29.99R
KALAELOA       CLEAR     74  71  91 CALM      30.01R
KANEOHE MCB    PTCLDY    78  71  79 SE7       30.01R
WHEELER FIELD  PTCLDY    71  70  96 NW3       30.02R
BELLOWS*         N/A    N/A N/A N/A E13         N/A
KAHUKU*          N/A    N/A N/A N/A E2          N/A
WHEELER*       NOT AVBL
WAIANAE HARBOR NOT AVBL
DILLINGHAM*      N/A     73  72  94 E1          N/A
KAHUKU TRN*      N/A     72  72 100 SE3G9       N/A
KAWAILOA*        N/A     72  68  88 E2          N/A
KII*             N/A     79  72  78 E12         N/A
MAKUA RANGE*     N/A     75  72  88 E3          N/A
OAHU FOREST NW NOT AVBL
SCHOFIELD BRK*   N/A     70  68  94 MISG        N/A
SCHOFIELD S*   NOT AVBL
WAIANAE VLY*   NOT AVBL
KUAOKALA*      NOT AVBL
HONOULIUULI*   NOT AVBL
MOKUOLOE IS*     N/A    N/A N/A N/A MISG        N/A
PALEHUA*       NOT AVBL
WAIAWA PHB*    NOT AVBL
$$

HIZ012>013-231700-
MOLOKAI-

CITY           SKY/WX    TMP DP  RH WIND       PRES   REMARKS
MOLOKAI AIRPT  PTCLDY    73  71  93 CALM      30.01R
KALAUPAPA      NOT AVBL
MAKAPULAPAI*   NOT AVBL
MOLOKAI 1*     NOT AVBL
PUU ALII*        N/A     61  61  99 SE2G9       N/A
$$

HIZ016-231700-
KAHOOLAWE-

CITY           SKY/WX    TMP DP  RH WIND       PRES   REMARKS
KAHOOLAWE*     NOT AVBL
HAKIOAWA*      NOT AVBL
HONOKANAIA*      N/A     76  70  83 N5G12     30.01R
KANELOA*         N/A     73  70  88 NE10G16   29.21S
KEALIALALO*    NOT AVBL
LUA MAKIKA*    NOT AVBL
$$

HIZ014>015-231700-
LANAI-

CITY           SKY/WX    TMP DP  RH WIND       PRES   REMARKS
LANAI CITY     FAIR      67  67 100 E6        30.06R
LANAI 1*       NOT AVBL
$$

HIZ017>028-231700-
MAUI-

CITY           SKY/WX    TMP DP  RH WIND       PRES   REMARKS
KAHULUI        CLEAR     70  67  90 S3        30.00R
KAPALUA-W MAUI PTCLDY    75  70  83 E9        29.99
HANA AIRPORT   MOCLDY    75  72  88 E6        30.04S
HANA*            N/A     77 N/A N/A E6          N/A
HALEAKALA SUMM   N/A     45  41  87 N16         N/A
MAALAEA BAY*   NOT AVBL
HALEAKALA*     NOT AVBL
KAUPO GAP*     NOT AVBL
KULA 1*          N/A     54  44  70 E3          N/A
$$

HIZ023>026-231700-
BIG ISLAND OF HAWAII COAST AND LOWER SLOPES-

CITY           SKY/WX    TMP DP  RH WIND       PRES   REMARKS
KAILUA KONA    CLEAR     78  70  76 CALM      29.96R
HILO           LGT RAIN  72  70  93 W9        30.02R
HONOKAA*       NOT AVBL
KAWAIHAE MWT*    N/A     77 N/A N/A NE6         N/A
KAWAIHAE*        N/A     79 N/A N/A N3          N/A
SOUTH POINT*     N/A     70 N/A N/A NE9         N/A
UPOLU AIRPORT*   N/A    N/A N/A N/A E15G21      N/A
KAMUELA*       MOSUNNY   64  63  94 NE16      30.12R
HAKALAU*         N/A     48  45  87 W2          N/A
KALOKO-HONOKO*   N/A     73  68  83 NE5       29.97R
PALI 2*          N/A     64 -11   4 N5          N/A
KEALAKOMO*       N/A     77  68  73 N9G17       N/A
KAUPULEHU*     NOT AVBL
KAPAPALA*        N/A     66  65  95 CALM        N/A
LOWER KAHUKU*  NOT AVBL
PUHE CS*       NOT AVBL
PUHO CS*         N/A     74  65  74 NE3         N/A
PTA KEAMUKU*     N/A     59  55  88 S3G10       N/A
WAIKOLOA*      NOT AVBL
$$

HIZ027>028-231700-
BIG ISLAND OF HAWAII INTERIOR AND SUMMMITS-

CITY           SKY/WX    TMP DP  RH WIND       PRES   REMARKS
BRADSHAW FIELD CLOUDY    52  49  88 SE3       30.35R
MK VISITOR CEN NOT AVBL
MAUNA KEA*       N/A     36  -6  17 E10         N/A  WCI  28
MAUNA LOA*       N/A    N/A N/A N/A MISG        N/A
MAUNA LOA 1*     N/A    N/A N/A N/A MISG        N/A
PTA KIPUKA*      N/A     54  52  94 E3          N/A
PTA RANGE 17*    N/A     55  54  94 E5          N/A
PTA WEST*        N/A     55  54  94 SE9         N/A
NENE CABIN*      N/A     48  48 100 N5          N/A
AHUMOA*        NOT AVBL
PTA PORTABLE*  NOT AVBL
PUU MALI*      NOT AVBL
$$

HIC003-231700-
NORTHWEST ISLANDS-

CITY           SKY/WX    TMP DP  RH WIND       PRES   REMARKS
MIDWAY ISLAND  CLEAR     81  79  94 S8        29.93S
MIDWAY NOS*    NOT AVBL
FRENCH FRIGATE NOT AVBL
$$

PHZ110>124-180-231700-
BUOY REPORTS

STATION/POSITION TIME  TEMP    WIND        PRES    WAVE   SWELL
                       AIR SEA DIR/SP/G            HT/PER HT/DIR
                 (UTC) (F)     (DEG/KT/KT) (MB)    (FT/S) (FT/D)
BUOY 51001       NOT AVBL
BUOY 51101       NOT AVBL
BUOY 51100       1600   78 80   60/ 14/ 16 1016.6R
BUOY 51003       1600   80 82  110/ 10/ 12 1014.9R   5/ 9   5
BUOY 51004       1456   78 81   70/  8/ 10 1014.4    6/11   5
BARBERS PT BUOY  NOT AVBL
WAIMEA BAY BUOY  1600      82                N/A     3/10   2/340
KAILUA BAY BUOY  1600      82                N/A     5/ 8   2/ 30
LANAI BUOY       1600      82                N/A     3/11   2/200
BARBERS PT 2     1600      81                N/A     4/11   2/200
PAUWELA MAUI     1600      81                N/A     5/11   2/ 10
HILO             1600      81                N/A     5/10   2/ 10
KANEOHE BAY BUOY NOT AVBL
HANALEI KAUAI    NOT AVBL
KAHULUI HARBOR   1600   77 81  330/  9/ 12 1015.8R
HONOLULU HARBOR  1600   76      CALM  /  3 1016.1R
KILO NALU        NOT AVBL
HILO HARBOR      1600   72     210/  6/  8 1015.9R
MOKUOLOE         1600   76 82  110/  9/ 11 1016.4R
NAWILIWILI       1600      82                N/A
WHOTS BUOY       NOT AVBL
BUOY 51028       NOT AVBL
$$

......................KEY........................................
  SKY/WX - SKY CONDITIONS/PRESENT WEATHER
  TMP    - TEMPERATURE IN FAHRENHEIT
  DWPT   - DEWPOINT IN FAHRENHEIT
  RH     - RELATIVE HUMIDITY IN PERCENT
  WIND   - DIRECTION AND SPEED /MPH FOR ISLANDS...KTS FOR BUOYS/
  PRES   - MEAN SEA LEVEL PRESSURE IN INCHES OF HG
  VSB    - VISIBILITY IN MILES
  HX     - HEAT INDEX
  WCI    - WIND CHILL INDEX
  VRB    - VARIABLE WIND DIRECTION
  N/A    - NOT AVAILABLE



USA.gov is the U.S. government's official web portal to all federal, state and local government web resources and services.